Showing default

TECHNOSAT, 42829

Orbit data source: Space-Track

TECHNOSAT, 42829 is a payload satellite owned by TUB (DE) in SSO that was launched on Fri, 14 Jul 2017 UTC via a SOYUZ-2-1A launch vehicle from the Tyuratam Missile And Space Complex (TTMTR). Payload-class satellites include a variety of spacecraft equipped with specific instruments for various scientific and technological missions. These include communications satellites like Starlink; space stations such as the ISS; scientific satellites like the Hubble; Earth observation satellites from companies like Planet Labs, Umbra, and HawkEye 360; GPS; miniature CubeSats for education and research; and military/defense satellites.

Loading next visibility...
Identifier
42829, 2017-042E
Orbit
SSO
Country
Flag of DEDE / GER
Related business
Manufacturer
TUB
Mission
Operational Amateur Technology
Bus & Motor
TUBIX20, Unknown motor
Mass
18 kg wet, 18 kg dry
Launch date (UTC)
2017-07-14 (9 years ago)
Launch vehicle
SOYUZ-2-1A
Launch site
Tyuratam Missile And Space Complex (TTMTR)
Object type
Payload
Rocket body
Debris
Shape & HBR
Oct Cyl, 1.0 m
Radar Cross Section
0.175 m², Medium (>0.1 m² and < 1m²)

Expand to show TLE details & history
Last TLE update: 9 hours ago

TLE from 9 hours ago
0 TECHNOSAT
1 42829U 17042E   26035.69734306  .00005064  00000-0  36984-3 0  9991
2 42829  97.4097 198.6127 0017930 180.5648 179.5561 15.03961387466787
Epoch: 2026-02-04T16:44Z
TLE epoch observation values (Epoch: 2026-02-04T16:44:10.440Z)
Latitude
-0.00004°
Longitude
172.709°
Altitude
570.197 km
Speed
7.569 km/s
True Right ascension
13h 14m 27s
True Declination
0° 00' 00"
Sunlit
Object was in full shadow at epoch
Visualization orbit readout
Latitude
Unknown
Longitude
Unknown
Altitude
Unknown
Speed
Unknown
Apparent Right ascension
Unknown
Apparent Declination
Unknown
Sunlit
N/A
Visualization observer readout
Local Sidereal Time
03:35:43
Azimuth
Unknown
Elevation
Unknown
Doppler factor
Unknown
Orbital elements
Apogee altitude
564.108 km
Perigee altitude
539.258 km
Semi-major axis
6,929.82 km
Eccentricity
0.00179
Inclination
97.4097°
RAAN
198.6127°
Arg. of periapsis
180.5648°
True anomaly
179.55769°
Mean anomaly
179.5561°
Eccentric anomaly
179.55689°
Mean motion
3.76236 °/min
Orbital period
95.68 mins
BSTAR
0.00036984
Loading maneuver chart data...
Computing Atmospheric mass density...
Loading historical data...
Loading historical data...
Loading historical data...
Loading historical data...
Loading historical data...
Loading historical data...
Loading historical data...

Documentation

Showing up to 5 results
|